ELSA-D (47944 NORAD) Tracking and Keplerian Element Data

This shows tracking and keplerian element data for the satellite.

Feedback or suggestion? Click here.




ElementValue
Catalog47944
NameELSA-D
Epoch Orbit1386
Epoch Day173.69901338
Epoch Year2021
RAAN75.8695
Inclination97.5567
Eccentricity0.0016684
Argument of Perigee290.1341
Mean Anonmoly69.8091
Mean Motion15.06664155
Decay Rate1.26E-06
L11 47944U 21022N 21173.69901338 .00000126 00000-0 12697-4 0 9996
L22 47944 97.5567 75.8695 0016684 290.1341 69.8091 15.06664155 13864

Live tracking and technical data element details for ELSA-D (NORAD 47944). ELSA-D can be tracked NOW for your location showing map with azimuth and elevation plus other details from your city location.

Track the satellite on the map from your city or location and see movement details for azimuth, elevation, latitude, longitude, range, height, and movement on the map or in text.







IsCatalogInMostPopularTable: catalog: 47944, numindb: 42
Update: records affected: 1



GetName: 47944 ELSA-D

Hit Count: updated at: Thu, 24 Jun 2021 03:59:34 GMT